Powrót do katalogu

STARLINK-36611

AktywnyŁącznośćVLEO
NORAD 67830·PAYLOAD·🇺🇸 United States

Wystrzelony Feb 16, 2026 z Vandenberg Space Force Base

Loading…

Następne Przeloty (najbliższe 24 godziny)

TLE

ŚwieżeSource: CelesTrak SupGP

Epoka: Sep 15, 2026, 02:42 UTC

1 67830C 26033K   26258.11298611 -.00003702  00000+0 -13407-3 0  2589
2 67830  42.9998 277.7627 0001310 264.3249 268.1756 15.27585035    17

Śledź STARLINK-36611 w czasie rzeczywistym z AllMySat

Download on the App Store